Regional Weather Roundup
Issued by NWS

Home | Current Version | Previous Version | Text Only | Print | Product List | Glossary Off
Versions: 1 2 3 4 5 6 7 8 9 10 11 12 13 14 15 16 17 18 19 20 21 22 23 24 25 26 27 28 29 30 31 32 33 34 35 36 37 38 39 40 41 42 43 44 45 46 47 48 49 50

000
ASUS45 KCYS 251910
RWRWY

WYOMING REGIONAL WEATHER ROUNDUP
NATIONAL WEATHER SERVICE CHEYENNE WY
1200 PM MST THU DEC 25 2014

NOTE:  "FAIR" INDICATES FEW OR NO CLOUDS BELOW 12,000 FEET
WITH NO SIGNIFICANT WEATHER AND/OR OBSTRUCTIONS TO VISIBILITY.

WYZ001-252000-
YELLOWSTONE NATIONAL PARK

CITY           SKY/WX    TMP DP  RH WIND       PRES   REMARKS
LK YELLOWSTONE   N/A     15  10  80 CALM      29.65R
W YELLOWSTONE  NOT AVBL

$$
WYZ002>013-054>058-071-098>099-252000-
NORTHERN WYOMING

CITY           SKY/WX    TMP DP  RH WIND       PRES   REMARKS
JACKSON        LGT SNOW  23  18  80 N30       29.54R WCI   5
CODY           CLOUDY    21  19  93 N18       29.76S WCI   6
GREYBULL       CLOUDY    29  19  66 NW23      29.71R WCI  15
WORLAND        SNOW      25  22  88 NW17      29.70R VSB 1/2 WCI  12
SHERIDAN       LGT SNOW  24  21  88 N10       29.83R VSB 3/4 WCI  14
BUFFALO        LGT SNOW  23  21  92 N20       29.75S FOG     WCI   8
GILLETTE       LGT SNOW  22  19  89 N17       29.75R VSB 3/4 WCI   8
HULETT           N/A    N/A N/A N/A MISG        N/A
NEWCASTLE      LGT SNOW  30  21  69 N10       29.67S WCI  21

$$
WYZ014>020-022>026-101>103-252000-
CENTRAL WYOMING

CITY           SKY/WX    TMP DP  RH WIND       PRES   REMARKS
BIG PINEY      SNOW      23  21  92 S10       29.51R VSB 1/4 WCI  12
PINEDALE       CLOUDY    27  12  54 NE10      29.50R WCI  17
DUBOIS         NOT AVBL
LANDER         SNOW      24  21  88 N6        29.66R VSB 1/4 WCI  17
RIVERTON       LGT SNOW  24  18  77 N22G30    29.66R VSB 1   WCI   9
CASPER         LGT SNOW  24  19  81 N23G30    29.64S VSB 3/4 WCI   9
DOUGLAS        LGT SNOW  28  25  88 E18       29.64R VSB 1   WCI  15

$$
WYZ021-027>030-104>119-252000-
SOUTHERN WYOMING

CITY           SKY/WX    TMP DP  RH WIND       PRES   REMARKS
EVANSTON       LGT SNOW  21  18  88 SW15      29.53S FOG     WCI   8
FORT BRIDGER   LGT SNOW  24  20  85 W22       29.55R WCI   9
ROCK SPRINGS   LGT SNOW  22  18  85 NE9G20    29.53S FOG     WCI  12
DIXON          LGT SNOW  31  28  88 W5        29.51S WCI  26
RAWLINS        SNOW      22  18  85 N10       29.52S VSB 1/4 WCI  11
SARATOGA       LGT SNOW  30  27  86 N10G18    29.49S WCI  21
LARAMIE        LGT SNOW  29  26  89 NE9       29.47F FOG     WCI  20
CHEYENNE       LGT SNOW  29  25  85 NE10      29.51S VSB 3/4 WCI  20
TORRINGTON     LGT SNOW  29  26  89 NE15      29.58S VSB 3/4 WCI  18
PINE BLUFFS    FLURRIES  30  28  93 NE12      29.53S WCI  21

$$


USA.gov is the U.S. government's official web portal to all federal, state and local government web resources and services.